07.05.2024;04:00;3
07.05.2024;03:00;3
07.05.2024;02:00;4
07.05.2024;01:00;4
07.05.2024;00:00;3
06.05.2024;23:00;4
06.05.2024;22:00;5
06.05.2024;21:00;5
06.05.2024;20:00;4
06.05.2024;19:00;3
06.05.2024;18:00;3
06.05.2024;17:00;3
06.05.2024;16:00;2
06.05.2024;15:00;2
06.05.2024;14:00;#
06.05.2024;13:00;#
06.05.2024;12:00;#
06.05.2024;11:00;#
06.05.2024;10:00;#
06.05.2024;09:00;15
06.05.2024;08:00;12
06.05.2024;07:00;15
06.05.2024;06:00;10
06.05.2024;05:00;7
06.05.2024;04:00;7
06.05.2024;03:00;8
06.05.2024;02:00;10
06.05.2024;01:00;10
06.05.2024;00:00;10
05.05.2024;23:00;10
05.05.2024;22:00;7
05.05.2024;21:00;4
05.05.2024;20:00;3
05.05.2024;19:00;3
05.05.2024;18:00;3
05.05.2024;17:00;3
05.05.2024;16:00;2
05.05.2024;15:00;3
05.05.2024;14:00;2
05.05.2024;13:00;2
05.05.2024;12:00;2
05.05.2024;11:00;3
05.05.2024;10:00;4
05.05.2024;09:00;5
05.05.2024;08:00;9
05.05.2024;07:00;15
05.05.2024;06:00;12
05.05.2024;05:00;10
